GW0175 Weather Reports


time (UTC)temp
C
wind
direction
speed
KPH
gust
KPH
rain 1hr
cm
rain 24hr
cm
rain mn
cm
humidity
%
barometer
mb
20260508002958 23 178 14.5 17.7 0.00 0.00 0.00 36 1010.4
20260508002454 23 166 12.9 17.7 0.00 0.00 0.00 35 1010.2
20260508001950 23 178 12.9 17.7 0.00 0.00 0.00 36 1010.3
20260508001446 23 162 11.3 17.7 0.00 0.00 0.00 36 1010.2
20260508000943 24 179 8.0 17.7 0.00 0.00 0.00 35 1010.6
20260508000439 24 168 1.6 17.7 0.00 0.00 0.00 35 1010.3
20260507235936 24 226 0.0 16.1 0.00 0.00 0.00 35 1010.7
20260507235433 24 154 3.2 11.3 0.00 0.00 0.00 34 1010.3
20260507234931 24 166 11.3 17.7 0.00 0.00 0.00 34 1010.4
20260507234427 24 179 9.7 14.5 0.00 0.00 0.00 34 1010.3
20260507233923 24 147 4.8 22.5 0.00 0.00 0.00 34 1010.6
20260507233420 24 166 9.7 17.7 0.00 0.00 0.00 34 1010.4
20260507232919 24 175 11.3 17.7 0.00 0.00 0.00 34 1010.6
20260507232415 23 171 16.1 17.7 0.00 0.00 0.00 33 1010.4
20260507231912 24 159 8.0 14.5 0.00 0.00 0.00 34 1010.6
20260507231409 24 169 9.7 11.3 0.00 0.00 0.00 34 1010.6
20260507230905 23 155 4.8 16.1 0.00 0.00 0.00 35 1010.6
20260507230403 23 181 9.7 17.7 0.00 0.00 0.00 34 1010.9
20260507225902 23 195 8.0 19.3 0.00 0.00 0.00 34 1010.8
20260507225359 23 181 8.0 11.3 0.00 0.00 0.00 34 1010.8
20260507224855 23 158 9.7 24.1 0.00 0.00 0.00 33 1010.9
20260507224351 23 189 9.7 17.7 0.00 0.00 0.00 34 1010.9
20260507223848 23 159 14.5 17.7 0.00 0.00 0.00 33 1011.2
20260507223344 23 182 6.4 14.5 0.00 0.00 0.00 33 1011.2
20260507222841 23 171 12.9 17.7 0.00 0.00 0.00 34 1011.3
20260507222337 24 174 6.4 14.5 0.00 0.00 0.00 34 1011.4
20260507221835 23 155 4.8 16.1 0.00 0.00 0.00 34 1011.4
20260507221331 23 157 9.7 17.7 0.00 0.00 0.00 34 1011.4
20260507220827 23 223 6.4 14.5 0.00 0.00 0.00 35 1011.5
20260507220326 23 177 4.8 17.7 0.00 0.00 0.00 35 1011.6
20260507215821 23 218 4.8 16.1 0.00 0.00 0.00 34 1011.8
20260507215319 23 130 0.0 16.1 0.00 0.00 0.00 37 1011.6
20260507214816 23 166 9.7 14.5 0.00 0.00 0.00 35 1011.8
20260507214313 23 180 8.0 14.5 0.00 0.00 0.00 35 1011.5
20260507213808 23 140 4.8 12.9 0.00 0.00 0.00 34 1012.1
20260507213306 23 164 8.0 12.9 0.00 0.00 0.00 35 1012.1
20260507212802 23 200 11.3 17.7 0.00 0.00 0.00 36 1012.3
20260507212258 23 167 8.0 9.7 0.00 0.00 0.00 36 1012.2
20260507211755 22 86 8.0 8.0 0.00 0.00 0.00 37 1012.2
20260507211251 22 175 14.5 20.9 0.00 0.00 0.00 37 1012.3
20260507210748 22 138 4.8 11.3 0.00 0.00 0.00 37 1012.4
20260507210245 22 254 0.0 14.5 0.00 0.00 0.00 38 1012.5
20260507205742 22 176 6.4 14.5 0.00 0.00 0.00 36 1012.5
20260507205239 22 196 11.3 16.1 0.00 0.00 0.00 37 1013.0
20260507204735 22 157 3.2 11.3 0.00 0.00 0.00 38 1012.9
20260507204233 22 70 3.2 9.7 0.00 0.00 0.00 37 1012.7
20260507203730 22 150 6.4 14.5 0.00 0.00 0.00 36 1013.0
20260507203227 21 248 4.8 11.3 0.00 0.00 0.00 39 1013.4
20260507202724 22 219 4.8 8.0 0.00 0.00 0.00 38 1013.4
20260507202220 21 196 4.8 9.7 0.00 0.00 0.00 39 1013.4
20260507201714 21 170 11.3 17.7 0.00 0.00 0.00 39 1013.5
20260507201212 22 237 4.8 11.3 0.00 0.00 0.00 38 1013.7
20260507200708 21 282 3.2 8.0 0.00 0.00 0.00 39 1013.9
20260507200204 21 163 6.4 16.1 0.00 0.00 0.00 41 1013.8
20260507195701 21 163 4.8 8.0 0.00 0.00 0.00 40 1013.9
20260507195158 20 254 6.4 6.4 0.00 0.00 0.00 42 1014.2
20260507194655 20 161 11.3 16.1 0.00 0.00 0.00 41 1014.4
20260507194150 20 274 4.8 8.0 0.00 0.00 0.00 43 1014.2
20260507193647 20 270 1.6 9.7 0.00 0.00 0.00 44 1014.5
20260507193145 20 160 1.6 12.9 0.00 0.00 0.00 44 1014.6
20260507192640 20 172 3.2 8.0 0.00 0.00 0.00 44 1014.3
20260507192138 20 173 8.0 14.5 0.00 0.00 0.00 43 1014.9
20260507191633 20 250 0.0 9.7 0.00 0.00 0.00 44 1014.6
20260507191130 20 255 1.6 11.3 0.00 0.00 0.00 45 1014.9
20260507190627 20 233 6.4 14.5 0.00 0.00 0.00 45 1014.7
20260507190126 19 106 0.0 9.7 0.00 0.00 0.00 45 1015.3
20260507185625 20 222 8.0 12.9 0.00 0.00 0.00 45 1014.8
20260507185120 18 194 8.0 17.7 0.00 0.00 0.00 47 1015.1
20260507184619 19 212 4.8 14.5 0.00 0.00 0.00 45 1015.4
20260507184116 19 262 4.8 6.4 0.00 0.00 0.00 47 1015.4
20260507183612 18 236 8.0 9.7 0.00 0.00 0.00 47 1015.7
20260507183109 18 121 3.2 4.8 0.00 0.00 0.00 47 1015.6
20260507182605 17 225 3.2 11.3 0.00 0.00 0.00 49 1015.8
20260507182102 18 188 4.8 11.3 0.00 0.00 0.00 48 1015.8
20260507181559 18 151 1.6 6.4 0.00 0.00 0.00 49 1016.0
20260507181055 17 180 9.7 16.1 0.00 0.00 0.00 49 1016.2
20260507180551 18 33 3.2 8.0 0.00 0.00 0.00 48 1016.2
20260507180048 18 131 4.8 4.8 0.00 0.00 0.00 49 1016.1
20260507175544 18 121 0.0 4.8 0.00 0.00 0.00 47 1016.5
20260507175042 18 15 3.2 9.7 0.00 0.00 0.00 48 1016.3
20260507174539 17 23 6.4 6.4 0.00 0.00 0.00 50 1016.5
20260507174037 17 79 4.8 16.1 0.00 0.00 0.00 50 1016.6
20260507173533 16 195 3.2 16.1 0.00 0.00 0.00 51 1016.9
20260507173031 16 232 0.0 11.3 0.00 0.00 0.00 52 1016.7
20260507172526 16 259 11.3 11.3 0.00 0.00 0.00 52 1016.9
20260507172024 17 210 3.2 8.0 0.00 0.00 0.00 49 1016.9
20260507171519 16 283 3.2 8.0 0.00 0.00 0.00 52 1017.0
20260507171017 16 21 3.2 9.7 0.00 0.00 0.00 52 1017.2
20260507170513 16 346 0.0 4.8 0.00 0.00 0.00 52 1017.2
20260507170010 16 233 4.8 11.3 0.00 0.00 0.00 53 1017.2
20260507165506 16 315 3.2 11.3 0.00 0.00 0.00 53 1017.4
20260507165003 16 21 0.0 6.4 0.00 0.00 0.00 53 1017.4
20260507164459 16 15 1.6 6.4 0.00 0.00 0.00 52 1017.7
20260507163955 15 31 11.3 14.5 0.00 0.00 0.00 55 1017.6
20260507163453 16 36 3.2 4.8 0.00 0.00 0.00 53 1017.9
20260507162950 15 63 0.0 8.0 0.00 0.00 0.00 55 1017.7
20260507162445 15 353 3.2 6.4 0.00 0.00 0.00 54 1017.7
20260507161943 15 354 4.8 8.0 0.00 0.00 0.00 53 1017.8
20260507161439 16 145 0.0 8.0 0.00 0.00 0.00 52 1018.2
20260507160936 15 96 3.2 6.4 0.00 0.00 0.00 54 1018.0
20260507160432 13 22 4.8 12.9 0.00 0.00 0.00 57 1018.4
20260507155927 14 78 3.2 8.0 0.00 0.00 0.00 56 1018.3
20260507155424 13 31 9.7 11.3 0.00 0.00 0.00 57 1018.5
20260507154921 14 71 1.6 12.9 0.00 0.00 0.00 57 1018.4
20260507154417 13 38 6.4 9.7 0.00 0.00 0.00 56 1018.3
20260507153915 13 157 0.0 12.9 0.00 0.00 0.00 58 1018.5
20260507153411 13 32 8.0 14.5 0.00 0.00 0.00 57 1018.9
20260507152908 12 11 8.0 16.1 0.00 0.00 0.00 58 1018.8
20260507152404 13 41 3.2 11.3 0.00 0.00 0.00 58 1019.0
20260507151900 13 45 9.7 14.5 0.00 0.00 0.00 58 1018.6
20260507151356 12 15 4.8 14.5 0.00 0.00 0.00 58 1018.9
20260507150854 12 32 8.0 14.5 0.00 0.00 0.00 60 1018.8
20260507150350 11 9 11.3 17.7 0.00 0.00 0.00 61 1018.8
20260507145846 12 43 8.0 14.5 0.00 0.00 0.00 62 1019.2
20260507145343 11 29 12.9 16.1 0.00 0.00 0.00 62 1019.1
20260507144840 11 33 4.8 16.1 0.00 0.00 0.00 62 1019.3
20260507144337 11 17 11.3 16.1 0.00 0.00 0.00 63 1018.9
20260507143834 11 20 14.5 19.3 0.00 0.00 0.00 63 1019.2
20260507143331 11 53 4.8 17.7 0.00 0.00 0.00 64 1019.3
20260507142827 11 15 11.3 19.3 0.00 0.00 0.00 64 1019.3
20260507142323 10 15 11.3 17.7 0.00 0.00 0.00 64 1019.2
20260507141820 10 40 16.1 19.3 0.00 0.00 0.00 65 1019.1
20260507141317 10 349 9.7 17.7 0.00 0.00 0.00 66 1019.2
20260507140813 10 45 11.3 17.7 0.00 0.00 0.00 66 1019.2
20260507140310 10 21 8.0 22.5 0.00 0.00 0.00 66 1019.2
20260507135808 10 32 14.5 19.3 0.00 0.00 0.00 66 1019.4
20260507135306 10 19 14.5 22.5 0.00 0.00 0.00 66 1019.3
20260507134802 10 21 11.3 22.5 0.00 0.00 0.00 66 1019.1
20260507134258 10 27 17.7 17.7 0.00 0.00 0.00 66 1019.4
20260507133754 10 30 16.1 25.7 0.00 0.00 0.00 65 1019.1
20260507133250 10 35 17.7 24.1 0.00 0.00 0.00 66 1019.2
20260507132748 10 33 17.7 22.5 0.00 0.00 0.00 66 1019.2
20260507132245 10 35 9.7 22.5 0.00 0.00 0.00 66 1019.1
20260507131742 10 29 8.0 20.9 0.00 0.00 0.00 66 1019.2
20260507131239 10 8 9.7 17.7 0.00 0.00 0.00 65 1019.1
20260507130735 10 27 12.9 20.9 0.00 0.00 0.00 65 1019.1
20260507130233 10 10 12.9 24.1 0.00 0.00 0.00 66 1019.0
20260507125732 10 36 14.5 20.9 0.00 0.00 0.00 65 1019.0
20260507125229 10 0 17.7 22.5 0.00 0.00 0.00 66 1018.9
20260507124725 10 20 14.5 19.3 0.00 0.00 0.00 66 1019.0
20260507124222 10 0 3.2 20.9 0.00 0.00 0.00 66 1018.9
20260507123721 10 18 8.0 20.9 0.00 0.00 0.00 66 1019.0
20260507123218 10 30 14.5 22.5 0.00 0.00 0.00 67 1018.9
20260507122713 10 5 9.7 17.7 0.00 0.00 0.00 67 1018.8
20260507122209 10 27 12.9 20.9 0.00 0.00 0.00 67 1018.8
20260507121705 10 33 12.9 24.1 0.00 0.00 0.00 67 1018.4
20260507121201 10 22 11.3 22.5 0.00 0.00 0.00 67 1018.8
20260507120657 10 20 11.3 20.9 0.00 0.00 0.00 67 1018.5
20260507120154 10 10 17.7 22.5 0.00 0.00 0.00 67 1018.5
20260507115650 10 20 17.7 27.4 0.00 0.00 0.00 67 1018.5
20260507115146 10 14 19.3 27.4 0.00 0.00 0.00 68 1018.6
20260507114642 10 14 11.3 24.1 0.00 0.00 0.00 68 1018.5
20260507114140 10 0 17.7 27.4 0.00 0.00 0.00 68 1018.8
20260507113637 10 34 19.3 29.0 0.00 0.00 0.00 68 1018.4
20260507113134 10 0 14.5 25.7 0.00 0.00 0.00 68 1018.6
20260507112632 10 12 19.3 27.4 0.00 0.00 0.00 68 1018.6
20260507112128 10 27 14.5 27.4 0.00 0.00 0.00 68 1018.6
20260507111625 10 24 22.5 25.7 0.00 0.00 0.00 68 1018.4
20260507111122 10 0 22.5 25.7 0.00 0.00 0.00 68 1018.6
20260507110618 10 356 17.7 29.0 0.00 0.00 0.00 68 1018.4
20260507110115 9 28 12.9 24.1 0.00 0.00 0.00 69 1018.4
20260507105612 9 22 14.5 24.1 0.00 0.00 0.00 69 1018.4
20260507105108 9 2 17.7 22.5 0.00 0.00 0.00 69 1018.3
20260507104606 9 10 14.5 22.5 0.00 0.00 0.00 69 1018.3
20260507104102 9 6 17.7 24.1 0.00 0.00 0.00 69 1018.4
20260507103558 9 355 16.1 19.3 0.00 0.00 0.00 69 1018.4
20260507103055 9 18 14.5 20.9 0.00 0.00 0.00 68 1018.1
20260507102551 9 7 19.3 24.1 0.00 0.00 0.00 68 1018.3
20260507102047 10 354 9.7 20.9 0.00 0.00 0.00 68 1018.3
20260507101543 10 0 19.3 22.5 0.00 0.00 0.00 68 1018.0
20260507101039 10 6 22.5 25.7 0.00 0.00 0.00 68 1018.0
20260507100537 10 10 14.5 20.9 0.00 0.00 0.00 68 1018.2
20260507100035 10 7 16.1 24.1 0.00 0.00 0.00 67 1017.7
20260507095532 10 21 14.5 27.4 0.00 0.00 0.00 67 1017.7
20260507095029 10 359 17.7 25.7 0.00 0.00 0.00 67 1017.8
20260507094525 10 340 11.3 27.4 0.00 0.00 0.00 66 1017.6
20260507094022 10 0 19.3 30.6 0.00 0.00 0.00 66 1017.8
20260507093519 10 0 30.6 30.6 0.00 0.00 0.00 66 1017.6
20260507093018 10 3 20.9 29.0 0.00 0.00 0.00 66 1017.7
20260507092514 10 352 19.3 32.2 0.00 0.00 0.00 66 1017.3
20260507092011 10 9 16.1 29.0 0.00 0.00 0.00 66 1017.2
20260507091508 10 12 14.5 25.7 0.00 0.00 0.00 66 1017.3
20260507091004 10 33 14.5 17.7 0.00 0.00 0.00 66 1017.2
20260507090459 10 349 25.7 29.0 0.00 0.00 0.00 65 1017.1
20260507085956 10 3 20.9 27.4 0.00 0.00 0.00 65 1017.3
20260507085454 10 349 29.0 35.4 0.00 0.00 0.00 64 1017.6
20260507084950 10 358 27.4 33.8 0.00 0.00 0.00 64 1017.0
20260507084447 11 359 22.5 32.2 0.00 0.00 0.00 64 1017.0
20260507083944 11 332 16.1 24.1 0.00 0.00 0.00 64 1017.0
20260507083440 11 8 24.1 29.0 0.00 0.00 0.00 63 1016.8
20260507082937 11 359 14.5 25.7 0.00 0.00 0.00 63 1016.8
20260507082433 11 6 12.9 29.0 0.00 0.00 0.00 63 1017.0
20260507081930 11 0 12.9 17.7 0.00 0.00 0.00 63 1016.9
20260507081426 11 358 16.1 25.7 0.00 0.00 0.00 63 1016.8
20260507080923 11 1 12.9 19.3 0.00 0.00 0.00 63 1016.9
20260507080419 11 10 12.9 22.5 0.00 0.00 0.00 63 1016.9
20260507075914 11 337 6.4 20.9 0.00 0.00 0.00 63 1016.8
20260507075411 11 330 9.7 29.0 0.00 0.00 0.00 63 1016.8
20260507074908 11 346 8.0 30.6 0.00 0.00 0.00 63 1016.6
20260507074404 11 15 8.0 20.9 0.00 0.00 0.00 62 1016.6
20260507073902 11 359 20.9 33.8 0.00 0.00 0.00 62 1016.3
20260507073358 11 345 22.5 33.8 0.00 0.00 0.00 61 1016.2
20260507072855 11 8 19.3 38.6 0.00 0.00 0.00 61 1016.0
20260507072353 11 4 20.9 41.8 0.00 0.00 0.00 61 1016.0
20260507071850 11 8 29.0 49.9 0.00 0.00 0.00 61 1015.5
20260507071347 11 9 32.2 43.5 0.00 0.00 0.00 62 1015.5
20260507070843 11 6 27.4 46.7 0.00 0.00 0.00 62 1015.6
20260507070341 11 356 40.2 48.3 0.00 0.00 0.00 61 1015.6
20260507065838 11 0 22.5 46.7 0.00 0.00 0.00 61 1015.5
20260507065334 11 344 25.7 40.2 0.00 0.00 0.00 61 1015.6
20260507064831 11 26 25.7 45.1 0.00 0.00 0.00 61 1015.4
20260507064330 11 15 16.1 46.7 0.00 0.00 0.00 61 1015.5
20260507063827 11 17 29.0 41.8 0.00 0.00 0.00 61 1015.4
20260507063324 11 1 35.4 48.3 0.00 0.00 0.00 61 1015.0
20260507062821 11 352 27.4 53.1 0.00 0.00 0.00 61 1014.7
20260507062318 11 16 32.2 48.3 0.00 0.00 0.00 61 1014.9
20260507061816 11 4 32.2 54.7 0.00 0.00 0.00 61 1014.6
20260507061314 11 4 38.6 53.1 0.00 0.00 0.00 60 1014.8
20260507060812 12 348 27.4 53.1 0.00 0.00 0.00 60 1014.8
20260507060308 12 33 30.6 41.8 0.00 0.00 0.00 60 1014.5
20260507055805 12 0 29.0 54.7 0.00 0.00 0.00 59 1014.5
20260507055300 12 11 29.0 56.3 0.00 0.00 0.00 58 1014.5
20260507054756 12 34 17.7 51.5 0.00 0.00 0.00 58 1014.6
20260507054253 13 6 38.6 51.5 0.00 0.00 0.00 57 1014.7
20260507053750 13 359 24.1 48.3 0.00 0.00 0.00 57 1014.6
20260507053248 13 18 12.9 48.3 0.00 0.00 0.00 56 1014.5
20260507052747 13 12 32.2 46.7 0.00 0.00 0.00 56 1014.4
20260507052243 13 23 20.9 46.7 0.00 0.00 0.00 55 1014.6
20260507051741 13 7 24.1 45.1 0.00 0.00 0.00 54 1014.5
20260507051237 14 18 27.4 40.2 0.00 0.00 0.00 53 1014.5
20260507050734 14 349 27.4 59.5 0.00 0.00 0.00 53 1014.4
20260507050231 15 25 19.3 45.1 0.00 0.00 0.00 50 1013.9
20260507045728 16 0 45.1 48.3 0.00 0.00 0.00 44 1013.7
20260507045224 14 22 24.1 29.0 0.00 0.00 0.00 41 1013.5
20260507044722 16 325 0.0 4.8 0.00 0.00 0.00 34 1012.6
20260507044218 16 307 3.2 6.4 0.00 0.00 0.00 33 1012.2
20260507043714 17 282 0.0 8.0 0.00 0.00 0.00 32 1012.1
20260507043211 17 323 3.2 6.4 0.00 0.00 0.00 32 1012.1
20260507042708 17 270 3.2 4.8 0.00 0.00 0.00 32 1011.9
20260507042202 17 235 0.0 4.8 0.00 0.00 0.00 32 1011.9
20260507041700 17 262 0.0 4.8 0.00 0.00 0.00 31 1012.1
20260507041156 17 270 4.8 6.4 0.00 0.00 0.00 30 1011.9
20260507040653 17 247 4.8 11.3 0.00 0.00 0.00 29 1011.8
20260507040150 17 259 6.4 9.7 0.00 0.00 0.00 30 1011.6
20260507035646 17 240 4.8 8.0 0.00 0.00 0.00 30 1011.9
20260507035142 18 235 8.0 9.7 0.00 0.00 0.00 30 1011.8
20260507034639 18 255 3.2 9.7 0.00 0.00 0.00 30 1011.4
20260507034136 18 231 6.4 9.7 0.00 0.00 0.00 30 1011.3
20260507033635 18 243 4.8 9.7 0.00 0.00 0.00 30 1011.4
20260507033131 17 239 6.4 9.7 0.00 0.00 0.00 30 1011.4
20260507032629 18 255 6.4 9.7 0.00 0.00 0.00 30 1011.2
20260507032125 17 239 3.2 8.0 0.00 0.00 0.00 31 1011.2
20260507031622 18 234 4.8 8.0 0.00 0.00 0.00 30 1011.2
20260507031118 18 254 4.8 6.4 0.00 0.00 0.00 30 1011.0
20260507030615 18 258 3.2 8.0 0.00 0.00 0.00 29 1011.0
20260507030113 18 250 6.4 6.4 0.00 0.00 0.00 28 1011.0
20260507025610 19 251 3.2 6.4 0.00 0.00 0.00 27 1010.9
20260507025107 19 216 3.2 4.8 0.00 0.00 0.00 27 1011.0
20260507024605 20 270 0.0 3.2 0.00 0.00 0.00 26 1010.3
20260507024102 20 237 3.2 4.8 0.00 0.00 0.00 25 1010.9
20260507023557 20 270 1.6 4.8 0.00 0.00 0.00 25 1010.7
20260507023055 21 270 0.0 4.8 0.00 0.00 0.00 24 1010.3
20260507022551 21 286 1.6 8.0 0.00 0.00 0.00 23 1010.2
20260507022046 21 235 3.2 8.0 0.00 0.00 0.00 23 1010.2
20260507021543 21 248 4.8 9.7 0.00 0.00 0.00 22 1010.1
20260507021039 22 232 6.4 6.4 0.00 0.00 0.00 21 1010.0
20260507020537 22 252 4.8 11.3 0.00 0.00 0.00 20 1010.0
20260507020033 22 266 4.8 11.3 0.00 0.00 0.00 20 1010.0
20260507015532 22 259 0.0 11.3 0.00 0.00 0.00 19 1010.0
20260507015029 23 229 8.0 8.0 0.00 0.00 0.00 19 1009.9
20260507014526 23 255 6.4 11.3 0.00 0.00 0.00 18 1009.7
20260507014021 23 260 6.4 12.9 0.00 0.00 0.00 18 1009.5
20260507013518 23 287 4.8 8.0 0.00 0.00 0.00 18 1009.5
20260507013016 24 302 4.8 8.0 0.00 0.00 0.00 18 1009.5
20260507012513 25 252 4.8 11.3 0.00 0.00 0.00 17 1009.6
20260507012009 25 297 4.8 9.7 0.00 0.00 0.00 16 1009.4
20260507011506 25 257 11.3 17.7 0.00 0.00 0.00 15 1009.2
20260507011002 25 278 8.0 16.1 0.00 0.00 0.00 15 1009.2
20260507010456 25 254 8.0 19.3 0.00 0.00 0.00 15 1009.2
20260507005953 25 264 8.0 19.3 0.00 0.00 0.00 15 1008.9
20260507005451 25 256 4.8 14.5 0.00 0.00 0.00 15 1009.0
20260507004947 26 270 4.8 16.1 0.00 0.00 0.00 14 1009.1
20260507004444 26 273 4.8 17.7 0.00 0.00 0.00 14 1008.9
20260507003942 26 233 24.1 24.1 0.00 0.00 0.00 14 1008.8
20260507003437 26 262 6.4 19.3 0.00 0.00 0.00 14 1008.9